Home   Weather   Holmdel   Past weeks
Flag for USA

Past Weather in Holmdel, New Jersey, USA — Yesterday and Last 2 Weeks

Now
71 °F

Sunny.


Feels Like: 77 °F
Forecast: 78 / 59 °F
Wind: 3 mph from Southwest

Location: New York City - Central Park
Current Time: Sep 24, 2020 at 12:12:16 pm
Latest Report: Sep 24, 2020 at 10:51 am
Visibility: 10 mi
Pressure30.01 "Hg
Humidity: 49%
Dew Point: 51 °F
Location of HolmdelLocation

Past Weather in Holmdel — Graph

°F

Holmdel Temperature Yesterday

Maximum temperature yesterday: 79 °F (at 3:51 pm)
Minimum temperature yesterday: 58 °F (at 4:51 am)
Average temperature yesterday: 69 °F

High & Low Weather Summary for the Past Weeks

 TemperatureHumidityPressure
High81 °F (Sep 10, 12:51 pm)97% (Sep 10, 2:03 am)30.58 "Hg (Sep 10, 2:03 am)
Low49 °F (Sep 22, 4:51 am)24% (Sep 19, 6:51 pm)29.59 "Hg (Sep 16, 7:51 pm)
Average66 °F63%30.18 "Hg
* Reported Sep 9 10:07 am — Sep 24 10:51 am, Holmdel. Weather by CustomWeather, © 2020

Note: Actual official high and low records may vary slightly from our data, if they occured in-between our weather recording intervals... More about our weather records

Holmdel Weather History for the Previous 24 Hours

Scroll right to see more
 ConditionsComfort  
Time TempWeatherWind HumidityBarometerVisibility
10:51 am
Thu, Sep 24
71 °FSunny.3 mph49%30.01 "Hg10 mi
9:51 am69 °FSunny.No wind61%30.00 "Hg10 mi
8:51 am67 °FSunny.3 mph63%29.99 "Hg10 mi
7:51 am64 °FSunny.No wind68%29.97 "Hg10 mi
6:51 am63 °FSunny.3 mph68%29.96 "Hg10 mi
5:51 am63 °FClear.5 mph68%29.94 "Hg10 mi
4:51 am62 °FClear.No wind70%29.93 "Hg10 mi
3:51 am64 °FClear.3 mph65%29.93 "Hg10 mi
2:51 am64 °FClear.3 mph65%29.92 "Hg10 mi
1:51 am67 °FClear.No wind57%29.92 "Hg10 mi
12:51 am68 °FClear.No wind55%29.92 "Hg10 mi
11:51 pm
Wed, Sep 23
70 °FClear.No wind51%29.92 "Hg10 mi
10:51 pm70 °FClear.5 mph51%29.91 "Hg10 mi
9:51 pm72 °FClear.5 mph48%29.90 "Hg10 mi
8:51 pm72 °FClear.No wind48%29.89 "Hg10 mi
7:51 pm73 °FClear.3 mph46%29.88 "Hg10 mi
6:51 pm76 °FClear.5 mph40%29.85 "Hg10 mi
5:51 pm77 °FSunny.3 mph40%29.84 "Hg10 mi
4:51 pm78 °FScattered clouds.5 mph39%29.83 "Hg10 mi
3:51 pm79 °FPassing clouds.6 mph39%29.82 "Hg10 mi
2:51 pm78 °FSunny.14 mph39%29.82 "Hg10 mi
1:51 pm78 °FSunny.10 mph40%29.83 "Hg10 mi
12:51 pm75 °FSunny.14 mph43%29.85 "Hg10 mi
Weather by CustomWeather, © 2020

See weather overview